N1LTP Weather Reports


Display with metric or nautical units.
time (UTC)temp
F
wind
direction
speed
MPH
gust
MPH
rain 1hr
in
rain 24hr
in
rain mn
in
humidity
%
barometer
mb
20260502230047 51 80 0.0 1.0 0.00 0.00 0.00 84 1009.9
20260502224547 51 26 0.0 2.0 0.00 0.00 0.00 84 1009.9
20260502223046 51 26 0.0 2.0 0.00 0.00 0.00 84 1009.7
20260502221545 51 103 0.0 2.0 0.00 0.00 0.00 82 1009.6
20260502220045 52 103 0.0 1.0 0.00 0.00 0.00 82 1009.6
20260502214544 52 105 0.0 1.0 0.00 0.00 0.00 82 1009.6
20260502213043 52 105 0.0 2.0 0.00 0.00 0.00 81 1009.7
20260502211544 52 106 0.0 3.0 0.00 0.00 0.00 80 1009.7
20260502210058 52 124 0.0 4.0 0.00 0.00 0.00 79 1009.6
20260502204547 52 17 1.0 3.0 0.00 0.00 0.00 78 1009.6
20260502203040 53 151 0.0 6.0 0.00 0.00 0.00 79 1009.8
20260502201549 53 152 2.0 6.0 0.00 0.00 0.00 79 1009.7
20260502200039 53 121 1.0 4.0 0.00 0.00 0.00 79 1009.9
20260502194536 53 172 0.0 7.0 0.00 0.00 0.00 78 1010.2
20260502193035 53 138 1.0 6.0 0.00 0.00 0.00 77 1010.4
20260502191544 53 248 2.0 7.0 0.00 0.00 0.00 73 1010.6
20260502190038 54 251 1.0 8.0 0.00 0.00 0.00 72 1010.6
20260502184545 54 140 1.0 4.0 0.00 0.00 0.00 68 1010.5
20260502183040 53 153 0.0 3.0 0.00 0.00 0.00 77 1010.5
20260502181540 54 44 0.0 4.0 0.00 0.00 0.00 79 1010.7
20260502163025 59 141 2.0 8.0 0.00 0.00 0.00 59 1010.5
20260502161523 58 44 1.0 6.0 0.00 0.00 0.00 61 1010.6
20260502151515 56 331 0.0 2.0 0.00 0.00 0.00 71 1011.2
20260502123051 51 360 0.0 3.0 0.00 0.00 0.00 79 1011.9
20260502121552 51 268 1.0 4.0 0.00 0.00 0.00 80 1011.8
20260502114543 48 80 0.0 2.0 0.00 0.00 0.00 83 1011.5
20260502113037 47 80 0.0 2.0 0.00 0.00 0.00 84 1011.4
20260502111533 47 80 0.0 1.0 0.00 0.00 0.00 85 1011.6
20260502110029 46 80 0.0 1.0 0.00 0.00 0.00 86 1011.4
20260502104527 45 80 0.0 1.0 0.00 0.00 0.00 87 1011.3
20260502103029 44 80 0.0 2.0 0.00 0.00 0.00 87 1011.2
20260502101535 43 79 0.0 4.0 0.00 0.00 0.00 88 1011.3
20260502091517 42 190 0.0 0.0 0.00 0.00 0.00 88 1011.1
20260502071509 43 190 0.0 0.0 0.00 0.00 0.00 84 1011.0
20260502070008 43 190 0.0 0.0 0.00 0.00 0.00 84 1011.0
20260502064508 43 190 0.0 0.0 0.00 0.00 0.00 85 1011.1
20260502063017 42 190 0.0 0.0 0.00 0.00 0.00 84 1011.2
20260502061504 42 190 0.0 0.0 0.00 0.00 0.00 84 1011.2
20260502060003 42 190 0.0 0.0 0.00 0.00 0.00 82 1011.2
20260502054501 43 190 0.0 0.0 0.00 0.00 0.00 81 1011.3
20260502053127 43 190 0.0 0.0 0.00 0.00 0.00 80 1011.3
20260502051614 43 190 0.0 0.0 0.00 0.00 0.00 80 1011.3
20260502050056 44 190 0.0 0.0 0.00 0.00 0.00 80 1011.3
20260502044555 44 190 0.0 0.0 0.00 0.00 0.00 79 1011.4
20260502043100 44 190 0.0 0.0 0.00 0.00 0.00 78 1011.5
20260502041616 44 190 0.0 0.0 0.00 0.00 0.00 78 1011.4
20260502040048 45 190 0.0 0.0 0.00 0.00 0.00 77 1011.4
20260502034547 45 190 0.0 0.0 0.00 0.00 0.00 74 1011.3
20260502033059 46 190 0.0 0.0 0.00 0.00 0.00 73 1011.3
20260502031543 46 190 0.0 0.0 0.00 0.00 0.00 72 1011.2
20260502030042 46 190 0.0 0.0 0.00 0.00 0.00 71 1011.1
20260502024541 46 190 0.0 0.0 0.00 0.00 0.00 72 1011.1
20260502023042 46 190 0.0 0.0 0.00 0.00 0.00 74 1011.1
20260502021539 46 190 0.0 0.0 0.00 0.00 0.00 71 1010.9
20260502020038 47 190 0.0 0.0 0.00 0.00 0.00 71 1010.9
20260502014535 48 313 0.0 1.0 0.00 0.00 0.00 68 1010.8
20260502013035 49 313 0.0 0.0 0.00 0.00 0.00 69 1010.8
20260502011533 50 313 0.0 0.0 0.00 0.00 0.00 65 1010.7
20260502010031 51 313 0.0 0.0 0.00 0.00 0.00 61 1010.5
20260502004529 52 313 0.0 0.0 0.00 0.00 0.00 56 1010.2
20260502003029 54 313 0.0 0.0 0.00 0.00 0.00 52 1010.1
20260502001526 55 313 0.0 0.0 0.00 0.00 0.00 53 1009.9
20260502000026 57 313 0.0 0.0 0.00 0.00 0.00 46 1009.5
20260501234525 58 313 0.0 2.0 0.00 0.00 0.00 45 1009.3
20260501233024 59 330 1.0 4.0 0.00 0.00 0.00 43 1009.1
20260501231523 60 314 0.0 4.0 0.00 0.00 0.00 41 1008.8